Location: Altamira
(10.5079°N, 66.8544°W)
Time: 17:47:22
(UTC+00:00)

Helios 1A Rocket - Pass Details

Date: 13 December 2025
Orbit: 433 x 443 km, 98.3° (Epoch: 14 January)

Event Time Altitude Azimuth Distance (km) Brightness Sun altitude
Rises 21:19:15 0° 82° (E) 2,445 5.5 9.9°
Enters shadow 22:21:54 -60° 4° (N) 11,509 9.4 -4.1°
Maximum altitude 22:53:08 57° 283° (WNW) 531 3.0 -11.2°
